Temp
0 -0 -1 -1 -1 -1 -1 -2 -2 -2 -2 -2 -2 -2 -2 -2 -2 -2 -2 -1 -1 -0 0 1 1 1 1 1 1 1 1 1 1 1 0 1 2 2 2 2 2 3 3 3 3 3 3 3 3 3 3 3
-0 -0 -1 -1 -1 -1 -1 -2 -2 -2 -2 -2 -2 -2 -2 -2 -2 -2 -2 -2 -1 -1 -0 0 0 0 1 1 1 1 1 1 1 1 0 1 2 2 2 2 2 3 3 3 3 3 3 3 3 3 3 3
-0 -0 -1 -1 -1 -1 -1 -1 -2 -2 -2 -3 -3 -2 -2 -2 -2 -2 -2 -2 -1 -1 -1 -1 0 -0 -0 0 0 1 1 1 1 1 0 0 1 2 2 1 1 2 3 2 2 2 2 2 3 3 3 3
-0 -1 -1 -1 -1 -1 -1 -1 -2 -2 -2 -3 -3 -3 -3 -3 -3 -2 -3 -3 -2 -2 -2 -1 -1 -1 -1 -0 -0 0 0 0 1 0 0 0 0 1 2 1 1 2 2 2 2 2 2 2 2 2 2 2
-1 -1 -1 -1 -1 -1 -1 -2 -2 -2 -2 -2 -2 -3 -3 -3 -3 -3 -3 -3 -3 -2 -2 -2 -1 -1 -1 -1 -1 -0 -0 0 0 0 -0 -0 -0 0 1 1 1 1 2 2 1 1 1 1 1 1 1 2
-1 -1 -1 -1 -1 -1 -2 -2 -2 -2 -2 -2 -2 -2 -3 -3 -3 -3 -3 -3 -3 -3 -2 -2 -2 -2 -2 -2 -2 -1 -1 -0 -0 0 -0 -1 -1 -1 0 1 1 1 2 2 2 1 1 1 1 1 1 1
-1 -1 -2 -2 -2 -2 -2 -2 -2 -2 -2 -2 -2 -2 -2 -3 -3 -3 -3 -3 -3 -3 -3 -3 -2 -2 -2 -2 -2 -2 -1 -1 -1 -0 -1 -1 -1 -2 -1 1 1 1 1 1 1 1 1 1 1 1 1 1
-1 -1 -1 -2 -2 -2 -2 -2 -2 -2 -2 -2 -2 -2 -2 -3 -3 -3 -3 -3 -3 -3 -3 -3 -3 -2 -2 -2 -3 -3 -2 -2 -1 -1 -1 -1 -1 -1 -1 1 1 1 1 1 1 0 0 -0 -0 0 0 0
-1 -1 -1 -2 -2 -2 -2 -3 -3 -3 -3 -3 -2 -3 -3 -3 -3 -3 -3 -3 -3 -3 -3 -3 -3 -3 -2 -2 -3 -3 -3 -3 -2 -2 -1 -1 -1 -1 -0 0 0 0 0 1 1 0 0 -1 -1 -0 0 0
-2 -2 -2 -2 -2 -2 -2 -3 -3 -3 -3 -3 -3 -3 -3 -3 -3 -3 -3 -3 -3 -3 -3 -3 -3 -3 -3 -2 -3 -3 -3 -3 -3 -3 -2 -2 -2 -1 -1 -1 -0 -0 -0 0 0 0 0 -1 -1 -0 0 0
-2 -2 -2 -2 -2 -3 -2 -3 -3 -3 -3 -4 -4 -4 -4 -3 -3 -3 -3 -3 -3 -3 -3 -3 -3 -3 -3 -2 -2 -3 -3 -3 -3 -3 -3 -3 -2 -2 -2 -1 -1 -0 -0 -0 0 -0 -0 -1 -1 -1 0 0
-3 -3 -3 -3 -3 -3 -3 -3 -3 -3 -3 -4 -4 -4 -4 -4 -4 -4 -4 -3 -4 -4 -4 -3 -3 -3 -3 -3 -3 -3 -3 -3 -3 -3 -4 -4 -3 -3 -2 -2 -1 -1 -1 -1 -0 -0 -1 -1 -1 -1 -0 -0
-4 -4 -4 -4 -4 -4 -4 -4 -4 -4 -4 -4 -4 -4 -4 -4 -4 -4 -4 -4 -3 -3 -4 -4 -4 -4 -4 -4 -3 -3 -3 -3 -4 -4 -4 -4 -4 -3 -3 -3 -2 -2 -1 -1 -1 -1 -1 -2 -2 -1 -1 -1
-4 -4 -4 -4 -4 -4 -4 -4 -4 -4 -5 -5 -5 -5 -5 -5 -5 -5 -4 -4 -4 -4 -4 -4 -4 -4 -4 -4 -4 -4 -3 -3 -4 -4 -4 -4 -4 -4 -4 -3 -3 -2 -2 -2 -1 -1 -1 -2 -2 -2 -2 -2
-4 -5 -5 -5 -5 -5 -5 -5 -5 -5 -5 -6 -6 -6 -6 -5 -5 -5 -5 -5 -4 -4 -4 -4 -4 -4 -4 -4 -4 -4 -4 -3 -3 -4 -4 -4 -4 -4 -4 -4 -4 -3 -3 -3 -2 -2 -2 -3 -3 -3 -2 -2
-5 -5 -5 -5 -5 -6 -5 -5 -5 -5 -6 -6 -7 -7 -7 -7 -6 -6 -5 -5 -5 -5 -4 -4 -4 -4 -4 -4 -4 -4 -4 -4 -3 -4 -4 -4 -4 -4 -5 -5 -4 -4 -4 -3 -3 -3 -2 -3 -3 -3 -3 -3
-5 -5 -5 -5 -5 -6 -6 -6 -6 -6 -6 -6 -7 -7 -7 -8 -8 -7 -7 -6 -5 -5 -5 -5 -4 -4 -4 -4 -4 -4 -4 -4 -4 -4 -4 -4 -4 -4 -4 -4 -4 -4 -4 -4 -4 -3 -3 -3 -3 -4 -4 -3
-6 -6 -6 -6 -6 -6 -6 -6 -6 -6 -6 -6 -7 -7 -7 -8 -8 -8 -8 -7 -6 -6 -5 -5 -5 -5 -5 -5 -5 -4 -4 -4 -4 -4 -4 -4 -4 -4 -4 -4 -4 -4 -4 -4 -4 -4 -3 -3 -4 -4 -4 -4
-7 -7 -7 -7 -7 -7 -7 -7 -6 -6 -6 -6 -6 -6 -7 -7 -7 -8 -8 -8 -7 -7 -6 -6 -5 -5 -5 -5 -5 -5 -5 -5 -4 -4 -4 -4 -4 -4 -4 -4 -4 -4 -4 -4 -4 -4 -4 -4 -4 -4 -4 -4
-8 -8 -8 -8 -8 -8 -8 -8 -8 -7 -7 -6 -6 -6 -6 -6 -7 -7 -7 -8 -8 -7 -7 -6 -6 -6 -6 -5 -5 -5 -5 -5 -5 -5 -5 -4 -4 -4 -4 -4 -4 -4 -5 -5 -4 -5 -5 -5 -5 -5 -5 -5
-9 -9 -9 -9 -9 -9 -9 -9 -9 -9 -8 -7 -7 -6 -6 -6 -6 -6 -7 -7 -7 -8 -7 -7 -7 -6 -6 -6 -6 -5 -5 -5 -5 -5 -5 -5 -5 -4 -4 -4 -5 -5 -5 -5 -5 -5 -5 -5 -5 -5 -5 -5
-10 -10 -10 -10 -10 -10 -10 -10 -10 -10 -9 -9 -8 -7 -7 -6 -6 -6 -6 -6 -7 -7 -7 -7 -7 -7 -7 -6 -6 -6 -5 -5 -6 -6 -5 -5 -5 -5 -5 -4 -5 -5 -5 -5 -5 -5 -5 -5 -5 -5 -5 -6
-10 -11 -11 -11 -11 -11 -11 -11 -11 -11 -10 -10 -10 -9 -9 -8 -8 -8 -7 -7 -7 -7 -7 -7 -7 -7 -7 -7 -7 -6 -6 -6 -6 -6 -6 -5 -5 -5 -5 -5 -5 -5 -5 -5 -5 -6 -5 -5 -5 -6 -6 -6
-11 -11 -12 -12 -13 -13 -13 -12 -12 -12 -12 -12 -11 -10 -10 -9 -9 -9 -9 -8 -8 -7 -7 -7 -7 -7 -8 -8 -7 -7 -7 -6 -6 -6 -6 -6 -6 -6 -6 -5 -5 -5 -5 -5 -5 -6 -6 -6 -6 -6 -6 -6
-12 -13 -13 -14 -14 -14 -14 -14 -14 -14 -14 -13 -13 -12 -11 -11 -11 -11 -11 -10 -10 -9 -8 -8 -8 -8 -7 -8 -8 -8 -7 -7 -6 -6 -6 -6 -6 -6 -6 -6 -6 -5 -5 -5 -5 -6 -6 -6 -5 -5 -5 -6
-14 -15 -15 -16 -16 -16 -16 -16 -16 -15 -15 -15 -15 -14 -14 -13 -13 -13 -13 -12 -12 -11 -10 -9 -9 -8 -8 -8 -8 -8 -8 -7 -7 -7 -7 -7 -6 -6 -6 -6 -6 -6 -6 -5 -5 -5 -6 -5 -5 -5 -5 -5
-16 -17 -17 -17 -17 -17 -17 -17 -17 -17 -17 -17 -17 -16 -16 -15 -15 -15 -14 -14 -13 -12 -12 -11 -10 -9 -9 -8 -8 -8 -8 -8 -8 -7 -7 -7 -7 -7 -7 -6 -6 -6 -6 -5 -5 -6 -6 -6 -5 -5 -5 -4
-17 -17 -17 -18 -18 -17 -17 -17 -17 -17 -18 -18 -17 -17 -17 -17 -16 -16 -16 -15 -14 -14 -13 -12 -11 -11 -10 -10 -9 -9 -8 -8 -8 -8 -8 -8 -8 -8 -7 -7 -6 -6 -6 -6 -6 -6 -6 -6 -6 -5 -5 -4
-18 -18 -18 -18 -18 -18 -17 -17 -17 -17 -18 -18 -18 -18 -17 -17 -17 -17 -16 -16 -15 -15 -14 -14 -13 -12 -11 -11 -11 -10 -9 -9 -9 -8 -8 -8 -8 -8 -8 -8 -7 -7 -7 -7 -7 -6 -6 -6 -6 -5 -4 -4
-18 -18 -18 -18 -18 -18 -18 -17 -17 -17 -17 -17 -17 -17 -17 -17 -17 -17 -17 -17 -16 -15 -15 -15 -14 -14 -13 -12 -12 -11 -11 -10 -10 -9 -9 -9 -9 -9 -9 -9 -9 -8 -7 -7 -7 -7 -7 -7 -6 -6 -5 -5
-19 -19 -19 -19 -19 -18 -18 -18 -17 -17 -17 -17 -17 -17 -17 -17 -17 -17 -17 -17 -17 -16 -15 -15 -15 -15 -14 -13 -13 -12 -12 -11 -11 -10 -10 -10 -10 -9 -9 -9 -9 -9 -8 -8 -8 -8 -7 -7 -7 -7 -6 -6
Height
3092 3092 3092 3093 3093 3093 3092 3092 3091 3092 3092 3092 3093 3093 3093 3094 3093 3093 3093 3094 3094 3094 3094 3094 3095 3095 3095 3096 3096 3096 3097 3097 3097 3098 3097 3097 3098 3099 3099 3099 3099 3101 3105 3107 3105 3106 3108 3109 3110 3111 3112 3113
3089 3089 3089 3090 3090 3090 3090 3089 3089 3089 3089 3090 3090 3091 3091 3091 3090 3090 3090 3091 3092 3092 3092 3092 3092 3093 3093 3094 3094 3094 3094 3095 3096 3096 3096 3096 3096 3097 3097 3097 3098 3099 3102 3104 3102 3104 3105 3106 3108 3108 3110 3111
3086 3086 3087 3087 3087 3087 3087 3087 3087 3086 3086 3087 3087 3088 3088 3087 3087 3087 3088 3088 3089 3090 3089 3089 3089 3090 3091 3091 3092 3092 3093 3093 3093 3094 3094 3094 3094 3094 3095 3095 3096 3097 3100 3101 3100 3101 3103 3104 3106 3106 3108 3109
3083 3083 3084 3084 3084 3084 3084 3084 3084 3084 3084 3084 3084 3085 3085 3085 3085 3085 3085 3086 3086 3087 3087 3086 3087 3088 3088 3089 3089 3090 3091 3091 3091 3092 3092 3092 3092 3092 3092 3093 3094 3095 3098 3099 3098 3099 3101 3102 3103 3104 3106 3107
3080 3080 3080 3080 3080 3081 3081 3081 3081 3081 3082 3082 3082 3082 3082 3082 3082 3082 3082 3083 3083 3084 3084 3084 3084 3085 3085 3086 3087 3087 3088 3088 3089 3090 3090 3089 3089 3089 3089 3091 3091 3093 3096 3096 3096 3097 3099 3100 3101 3102 3103 3105
3076 3076 3076 3077 3077 3077 3077 3078 3078 3079 3079 3078 3078 3079 3079 3079 3079 3079 3080 3080 3081 3081 3081 3081 3081 3082 3082 3083 3084 3084 3085 3086 3086 3087 3088 3087 3087 3087 3086 3087 3089 3091 3093 3094 3094 3095 3096 3098 3098 3099 3100 3102
3073 3073 3073 3073 3073 3073 3074 3074 3074 3075 3076 3075 3076 3075 3075 3075 3076 3076 3077 3077 3077 3078 3078 3078 3078 3079 3079 3080 3080 3081 3082 3083 3084 3084 3086 3085 3085 3085 3083 3084 3087 3089 3090 3092 3093 3093 3094 3095 3096 3096 3097 3099
3070 3069 3069 3069 3069 3070 3070 3070 3070 3071 3072 3072 3072 3072 3072 3072 3071 3072 3073 3073 3074 3074 3075 3075 3075 3075 3076 3077 3077 3078 3079 3080 3081 3081 3083 3082 3082 3081 3081 3083 3085 3086 3087 3089 3090 3091 3092 3093 3093 3093 3094 3096
3066 3066 3065 3065 3065 3065 3066 3066 3066 3067 3068 3068 3069 3069 3069 3069 3068 3068 3068 3069 3070 3070 3071 3071 3071 3072 3073 3074 3074 3075 3075 3076 3077 3078 3079 3079 3079 3078 3078 3081 3083 3083 3085 3086 3087 3087 3088 3089 3089 3090 3092 3094
3063 3062 3062 3061 3061 3060 3061 3061 3062 3062 3063 3064 3064 3065 3065 3065 3065 3065 3065 3065 3065 3066 3066 3067 3067 3067 3069 3070 3071 3071 3072 3072 3074 3074 3075 3076 3075 3075 3076 3078 3079 3080 3082 3083 3083 3083 3084 3085 3086 3087 3089 3091
3059 3059 3058 3058 3057 3057 3056 3057 3057 3057 3058 3059 3059 3060 3060 3061 3061 3061 3061 3060 3061 3062 3062 3062 3063 3063 3064 3066 3067 3068 3068 3068 3069 3070 3071 3071 3071 3072 3072 3074 3076 3077 3078 3080 3080 3080 3081 3081 3082 3084 3086 3089
3055 3055 3054 3054 3054 3053 3053 3053 3052 3052 3053 3053 3054 3055 3055 3055 3056 3056 3056 3056 3057 3057 3058 3059 3059 3059 3059 3060 3062 3063 3064 3065 3065 3066 3067 3067 3067 3068 3069 3070 3072 3073 3075 3076 3076 3076 3077 3077 3078 3080 3083 3085
3053 3052 3051 3051 3050 3050 3049 3049 3049 3048 3048 3048 3048 3049 3049 3050 3050 3051 3051 3051 3052 3052 3053 3054 3054 3055 3055 3055 3057 3058 3059 3060 3061 3062 3062 3063 3063 3064 3065 3066 3067 3069 3071 3072 3072 3072 3073 3073 3074 3077 3079 3081
3050 3050 3049 3048 3048 3047 3046 3045 3045 3044 3044 3044 3043 3043 3043 3044 3044 3045 3046 3046 3046 3047 3047 3048 3049 3050 3051 3051 3052 3053 3054 3055 3057 3058 3058 3058 3059 3060 3061 3062 3063 3065 3066 3067 3068 3068 3069 3069 3070 3072 3074 3076
3047 3047 3046 3045 3045 3044 3043 3042 3041 3041 3040 3040 3039 3039 3038 3038 3038 3039 3039 3040 3041 3041 3041 3042 3043 3044 3045 3046 3047 3048 3049 3050 3051 3053 3054 3053 3055 3056 3057 3058 3059 3060 3061 3062 3063 3064 3065 3065 3066 3068 3070 3072
3043 3043 3043 3042 3041 3041 3040 3039 3038 3037 3036 3036 3035 3035 3035 3034 3033 3033 3033 3033 3034 3035 3035 3036 3037 3038 3039 3040 3042 3044 3044 3045 3046 3048 3049 3049 3050 3051 3052 3054 3055 3056 3057 3058 3059 3060 3061 3062 3062 3064 3066 3068
3037 3037 3037 3037 3036 3036 3036 3035 3034 3033 3032 3031 3031 3031 3031 3031 3030 3028 3027 3027 3028 3028 3029 3030 3031 3032 3033 3034 3036 3038 3038 3039 3041 3042 3043 3044 3044 3045 3047 3048 3050 3052 3053 3054 3055 3056 3057 3058 3059 3060 3062 3064
3030 3030 3029 3028 3028 3027 3027 3028 3028 3027 3027 3026 3026 3025 3025 3026 3026 3025 3023 3022 3022 3022 3022 3023 3025 3026 3027 3028 3029 3031 3032 3033 3035 3036 3037 3039 3039 3040 3041 3042 3045 3047 3049 3051 3052 3052 3053 3055 3056 3056 3058 3060
3023 3023 3023 3021 3020 3019 3017 3017 3018 3018 3019 3019 3019 3019 3019 3019 3020 3020 3019 3017 3016 3016 3017 3017 3018 3019 3020 3022 3023 3024 3025 3026 3027 3029 3031 3033 3034 3034 3035 3037 3039 3042 3044 3046 3048 3049 3050 3051 3052 3053 3054 3056
3015 3015 3015 3015 3014 3012 3010 3008 3007 3007 3007 3009 3010 3011 3012 3012 3012 3013 3014 3013 3011 3010 3011 3011 3011 3012 3013 3014 3016 3017 3018 3019 3021 3023 3025 3027 3028 3028 3030 3031 3033 3036 3038 3041 3043 3045 3046 3047 3048 3049 3050 3052
3007 3006 3006 3006 3006 3005 3004 3002 3000 2998 2997 2997 2998 3000 3002 3003 3003 3005 3006 3006 3006 3004 3004 3005 3005 3006 3006 3007 3008 3010 3012 3013 3014 3016 3018 3020 3021 3023 3024 3025 3027 3030 3032 3035 3038 3040 3042 3043 3044 3044 3046 3048
2998 2997 2996 2996 2996 2995 2994 2993 2992 2990 2989 2987 2986 2987 2989 2992 2993 2994 2995 2997 2997 2997 2998 2998 2998 2999 2999 3000 3001 3002 3004 3006 3008 3010 3011 3012 3014 3016 3018 3019 3021 3024 3026 3029 3032 3034 3036 3038 3040 3041 3042 3043
2989 2988 2986 2985 2985 2985 2984 2983 2982 2981 2980 2979 2978 2976 2976 2978 2981 2983 2984 2985 2987 2988 2989 2990 2991 2991 2992 2992 2993 2994 2996 2999 3001 3003 3005 3006 3007 3009 3011 3013 3015 3018 3021 3023 3025 3028 3031 3033 3035 3036 3037 3038
2982 2979 2977 2976 2974 2973 2973 2972 2971 2970 2970 2969 2969 2968 2967 2967 2969 2972 2973 2974 2976 2977 2979 2981 2982 2983 2984 2985 2985 2986 2988 2991 2993 2995 2997 3000 3001 3003 3004 3006 3008 3011 3014 3016 3018 3020 3023 3026 3028 3030 3032 3033
2975 2972 2969 2967 2965 2963 2962 2962 2961 2960 2960 2959 2958 2959 2958 2957 2958 2960 2962 2963 2964 2966 2968 2971 2972 2974 2975 2976 2977 2978 2980 2983 2985 2987 2989 2992 2994 2995 2997 2999 3001 3004 3007 3008 3009 3011 3014 3017 3020 3023 3025 3027
2968 2965 2962 2960 2958 2956 2955 2954 2954 2952 2952 2951 2950 2950 2950 2949 2949 2950 2952 2954 2955 2956 2958 2960 2962 2964 2965 2966 2968 2970 2972 2975 2977 2979 2981 2983 2986 2988 2990 2992 2994 2997 2999 3000 3002 3005 3007 3008 3012 3016 3018 3020
2962 2959 2958 2955 2953 2951 2949 2948 2947 2946 2945 2945 2944 2943 2943 2943 2943 2942 2943 2945 2946 2946 2947 2949 2952 2954 2955 2957 2958 2960 2963 2966 2969 2972 2974 2975 2977 2980 2982 2984 2987 2989 2990 2994 2997 2999 2998 3001 3005 3007 3009 3013
2957 2954 2953 2951 2949 2947 2944 2942 2942 2941 2940 2939 2938 2937 2937 2937 2937 2936 2936 2937 2939 2939 2939 2941 2942 2944 2945 2947 2949 2950 2953 2956 2959 2963 2966 2968 2969 2971 2973 2976 2979 2981 2984 2987 2989 2989 2991 2994 2996 2996 3001 3007
2952 2949 2947 2945 2943 2942 2939 2938 2936 2935 2934 2934 2933 2932 2932 2931 2931 2931 2930 2931 2932 2932 2933 2933 2934 2935 2936 2938 2940 2941 2943 2946 2949 2953 2956 2960 2961 2963 2965 2967 2970 2972 2976 2979 2981 2982 2984 2986 2986 2989 2997 3001
2947 2944 2942 2939 2937 2935 2933 2932 2931 2930 2928 2927 2926 2926 2926 2926 2926 2926 2925 2925 2925 2926 2927 2927 2927 2928 2928 2930 2932 2933 2935 2937 2940 2943 2947 2950 2953 2955 2958 2960 2961 2963 2967 2971 2973 2975 2977 2979 2982 2986 2991 2992
2942 2939 2936 2934 2932 2930 2928 2926 2925 2924 2922 2920 2920 2919 2919 2920 2920 2920 2920 2919 2919 2920 2920 2920 2921 2921 2922 2922 2924 2926 2928 2929 2931 2934 2937 2940 2943 2947 2950 2952 2952 2954 2959 2962 2964 2967 2970 2973 2977 2978 2980 2983
Wind_Speed
22 18 18 19 20 21 23 22 19 18 18 18 18 18 17 19 21 22 22 21 20 21 22 22 22 22 23 24 25 26 26 26 26 25 26 28 27 25 26 27 28 29 25 26 32 32 31 31 30 30 30 29
24 21 18 18 20 20 22 24 23 20 20 20 20 20 20 21 23 23 23 23 22 22 22 23 23 23 24 25 26 27 27 27 27 26 26 26 27 26 27 26 26 28 24 23 29 31 31 31 31 31 31 30
26 24 21 20 20 20 21 24 25 24 22 22 22 22 22 23 24 24 24 24 23 22 23 24 24 23 23 25 26 27 28 29 28 27 27 27 27 27 27 27 26 28 26 23 25 27 29 30 31 31 31 30
27 26 25 23 23 23 24 24 26 25 23 23 24 23 23 24 25 26 25 25 25 23 24 26 25 23 23 24 26 27 28 29 29 28 27 27 27 28 27 27 27 26 25 25 24 23 25 27 29 30 30 30
27 28 28 27 26 26 26 25 25 24 24 25 27 26 26 26 27 27 26 26 27 26 25 26 27 25 23 24 26 27 28 29 30 29 28 28 28 28 29 27 27 25 23 24 25 24 23 24 26 28 28 29
27 28 29 29 29 28 27 26 25 24 23 25 26 28 29 30 29 28 28 28 28 29 28 28 28 27 25 25 26 27 28 29 30 30 28 28 28 28 30 30 28 25 23 24 25 25 25 25 26 27 28 28
26 29 30 30 30 30 30 29 28 26 25 24 24 26 28 31 32 31 31 31 30 31 31 31 30 29 29 26 26 27 28 29 29 30 29 29 30 30 32 31 28 25 25 25 25 26 26 26 27 28 29 28
26 28 30 31 32 32 32 32 31 30 28 27 25 25 25 28 32 34 34 33 33 33 33 34 33 32 31 29 28 27 29 29 29 31 30 31 31 33 34 32 28 28 27 27 26 27 26 25 27 29 29 29
25 26 28 31 32 33 34 33 33 33 32 30 29 29 27 27 28 32 35 36 36 36 36 36 36 35 33 32 31 29 29 29 29 30 31 32 32 35 36 32 30 30 29 28 29 30 30 28 30 31 31 31
24 24 26 28 30 32 34 34 34 34 34 34 34 34 33 31 30 30 32 36 38 38 39 39 39 39 37 35 34 32 32 31 30 31 31 33 34 35 35 33 32 32 29 29 30 32 33 32 33 35 34 33
23 23 23 24 26 29 32 33 35 36 36 36 37 37 37 37 35 33 32 33 36 37 39 41 41 42 41 39 37 35 34 33 32 32 32 33 35 36 35 33 33 32 30 29 30 31 32 33 34 35 35 34
23 23 23 24 25 26 28 30 33 35 36 38 39 40 40 40 40 38 36 33 33 35 37 39 41 42 43 42 40 38 37 36 35 35 34 34 35 35 35 34 33 32 30 30 30 31 30 31 33 34 34 35
24 24 24 24 25 26 27 28 30 31 34 36 38 40 41 42 42 41 41 39 34 33 35 38 39 41 43 43 42 42 40 39 37 37 37 36 36 36 35 34 34 32 31 30 31 31 30 30 31 31 32 34
26 27 27 27 27 28 28 29 29 30 30 32 34 37 39 41 43 44 45 44 41 37 36 38 40 41 42 43 43 44 44 43 40 38 39 39 37 37 36 35 34 33 32 31 31 31 29 28 28 28 30 32
31 32 32 32 32 31 31 31 31 31 30 30 30 32 34 37 40 44 46 48 47 45 42 40 38 39 40 42 44 45 45 45 44 41 40 41 40 38 37 36 35 34 33 32 31 31 30 28 28 27 28 30
35 36 36 36 36 36 35 34 34 33 32 31 30 29 30 32 34 38 43 47 49 51 50 47 42 38 37 41 43 44 45 46 46 45 43 43 42 40 39 38 37 36 35 34 32 32 31 30 29 28 28 29
43 44 45 45 44 43 42 40 39 38 36 34 32 31 30 30 31 34 38 42 46 50 53 54 51 46 41 41 41 43 46 47 47 46 46 45 45 44 43 41 40 39 38 36 34 33 33 32 31 29 28 29
50 53 55 55 55 54 53 51 48 46 44 42 39 37 36 35 34 34 36 39 41 45 49 53 56 55 51 47 45 45 45 46 48 49 48 47 47 48 48 46 44 42 41 39 37 36 34 33 31 30 29 28
52 56 58 59 60 61 61 60 59 57 54 51 49 47 45 43 41 39 38 39 40 42 45 48 52 55 57 55 52 51 47 45 45 48 49 49 49 49 49 49 47 45 44 42 39 37 36 34 32 30 29 28
56 60 62 62 62 62 63 65 65 65 64 61 58 55 53 51 49 48 46 44 43 43 43 45 48 50 54 58 58 57 55 50 46 45 47 49 52 52 50 49 49 47 45 44 42 40 38 36 34 32 31 29
61 64 67 68 67 66 66 67 68 69 69 69 67 63 61 58 57 56 54 52 49 48 47 46 46 47 50 53 58 60 60 58 53 49 48 49 51 53 53 52 49 48 47 44 43 42 42 40 37 35 33 31
68 71 73 73 71 71 70 70 70 70 71 72 73 71 69 66 65 64 62 60 58 54 52 50 49 48 49 50 54 58 61 62 59 54 50 49 50 50 53 55 52 49 48 46 44 43 44 43 41 38 36 34
77 78 78 78 76 74 73 73 72 72 73 73 75 76 76 74 71 68 66 64 63 61 58 55 54 52 51 51 52 55 59 62 62 59 51 49 51 52 53 54 54 51 49 47 47 46 45 45 45 42 39 37
82 82 82 79 75 72 69 68 67 66 67 68 70 72 74 75 71 64 61 61 62 62 61 58 58 57 54 53 54 55 56 59 62 62 56 49 48 51 53 54 53 52 49 47 47 48 48 47 48 47 45 43
79 76 73 67 62 60 58 55 54 54 54 55 58 60 62 64 63 56 51 52 55 57 59 59 59 60 60 58 57 57 57 57 59 61 60 56 50 47 50 53 54 53 50 48 47 49 52 52 52 52 51 50
66 62 55 51 49 48 48 46 45 45 45 46 47 49 50 52 52 49 45 44 47 51 55 57 58 60 62 62 61 60 59 58 59 59 60 60 57 52 50 51 54 56 55 53 50 50 53 55 55 55 56 56
50 47 43 42 42 42 43 43 42 42 42 42 42 43 45 44 43 43 41 38 41 46 50 54 57 60 61 62 62 62 62 61 60 60 59 59 59 57 54 51 51 54 58 57 54 51 53 55 56 59 61 61
42 40 40 39 39 40 42 43 43 43 41 40 40 41 41 41 39 40 40 36 36 40 45 49 54 57 59 61 62 62 62 62 61 61 60 59 59 57 56 54 52 53 54 55 55 55 55 54 56 61 63 63
43 42 42 41 40 39 40 41 42 42 42 41 41 42 40 40 39 37 37 36 35 36 39 42 47 52 57 58 60 61 62 62 62 62 61 60 60 59 57 55 55 55 53 53 54 57 56 55 58 62 62 63
46 46 45 44 43 40 39 39 39 40 41 41 41 41 41 39 36 34 34 35 35 35 35 37 40 45 51 55 57 59 61 62 61 62 62 61 60 60 60 58 57 58 57 53 52 56 58 58 58 60 60 61
46 47 46 45 44 42 41 40 39 40 41 42 42 42 41 39 36 35 35 35 34 34 34 35 36 39 44 49 53 55 58 61 61 61 61 61 61 60 60 59 58 60 59 56 53 54 57 59 59 59 61 61
Wind_Direction
271 263 257 260 258 259 261 256 251 252 254 255 256 255 253 253 255 255 256 258 260 260 258 256 256 255 255 255 256 255 252 248 246 244 244 248 250 247 248 252 252 251 242 236 239 240 239 238 237 238 238 238
273 270 261 257 257 257 261 260 252 248 250 252 253 253 252 250 252 252 253 257 261 262 260 257 256 257 257 256 256 255 253 251 248 246 243 245 250 248 247 250 250 248 241 234 239 240 241 240 239 239 239 238
273 271 265 256 253 251 255 260 257 250 247 250 253 254 254 253 253 253 254 256 257 259 262 260 257 258 258 258 258 255 253 252 249 247 246 245 249 248 246 248 248 246 241 237 242 242 242 242 242 242 242 240
270 270 266 259 253 250 251 255 256 254 253 254 255 255 256 257 256 256 256 256 255 254 259 262 259 258 259 260 258 256 254 252 250 247 247 247 247 248 246 245 246 246 243 241 243 242 242 243 243 243 243 243
268 268 267 264 259 256 256 255 256 258 260 262 260 257 256 257 258 259 258 256 256 255 255 258 258 257 258 262 260 257 255 252 250 248 246 246 246 247 248 245 244 245 243 243 245 243 242 242 242 242 242 242
267 265 264 264 262 260 258 256 255 255 257 261 263 261 258 257 257 258 258 256 255 256 256 255 256 255 254 258 261 259 256 254 252 249 247 246 244 243 245 244 244 245 243 242 245 246 245 242 241 242 240 240
268 265 263 261 260 259 256 253 252 251 251 255 258 260 261 260 258 257 258 258 255 255 256 256 255 254 252 252 256 260 259 256 253 249 246 245 245 243 242 241 242 245 244 242 244 247 247 245 242 241 240 239
270 268 265 261 259 257 254 253 252 249 246 249 253 255 258 260 259 257 257 258 258 256 255 255 255 253 252 250 250 254 259 258 255 252 247 245 246 246 246 245 244 243 242 241 242 243 244 244 242 241 240 239
271 269 267 265 263 260 257 255 254 250 246 244 247 250 251 254 258 259 258 257 257 258 256 255 256 253 250 250 249 249 252 256 257 255 252 248 247 248 250 249 247 245 242 239 239 240 239 237 238 238 238 239
268 266 266 266 266 264 262 259 256 253 250 246 244 246 247 248 252 257 259 258 256 257 258 258 257 257 254 250 249 248 248 250 253 255 255 253 250 250 251 249 248 247 244 240 238 238 239 237 236 237 237 237
266 264 263 263 264 265 265 264 262 258 254 250 246 245 245 245 248 251 253 257 257 256 258 260 260 259 258 254 250 249 248 248 249 251 253 254 254 253 253 251 248 247 245 242 239 238 238 240 239 238 238 237
268 266 264 263 263 263 264 264 264 263 260 256 251 248 246 246 247 247 247 250 255 255 254 256 259 259 259 257 254 250 249 248 248 249 250 252 254 254 254 253 251 249 246 243 240 238 237 239 241 239 238 237
271 271 271 270 268 266 265 263 263 263 262 260 257 254 250 248 247 246 246 247 250 253 251 251 253 256 257 257 257 254 251 250 249 249 251 251 252 254 254 254 252 250 248 245 241 239 237 238 240 239 238 237
276 277 277 276 275 272 269 266 264 262 261 260 259 257 255 251 248 246 246 246 247 248 249 249 249 250 253 255 255 255 252 251 249 249 251 252 250 252 254 254 254 252 248 245 243 241 240 239 239 237 236 237
282 282 282 281 279 276 272 268 265 263 261 260 259 258 257 255 252 249 247 245 245 246 247 248 248 248 250 251 251 253 253 252 250 249 250 252 251 250 252 254 254 252 249 245 242 241 241 241 241 238 235 235
287 286 284 283 281 278 274 270 266 262 260 260 261 260 259 258 257 254 250 247 245 245 246 247 248 248 248 248 249 251 254 254 252 250 248 250 252 250 250 250 251 250 248 244 241 240 240 241 242 239 235 234
293 291 289 287 284 280 277 274 271 268 264 262 261 262 263 261 260 258 256 252 248 246 245 246 248 248 247 247 248 248 250 251 251 250 248 248 249 250 249 248 247 247 246 244 241 239 239 239 241 240 237 235
296 296 295 293 290 287 283 279 275 272 269 267 265 264 265 265 263 262 260 257 254 250 247 245 245 246 247 247 248 247 246 246 246 246 247 246 247 248 249 248 246 245 246 245 243 240 239 238 240 241 240 238
297 298 296 295 294 292 290 286 282 278 272 268 266 265 266 267 266 264 262 260 258 256 253 250 247 246 245 245 246 248 248 247 245 244 244 245 246 245 246 248 246 244 244 245 244 243 240 239 239 240 241 240
298 298 296 294 292 291 290 289 287 284 280 274 269 265 263 263 264 264 263 261 260 259 256 255 253 250 247 245 244 245 248 250 247 245 244 244 246 246 245 246 245 241 240 241 243 243 241 238 236 236 238 239
299 298 297 295 291 289 288 286 286 285 284 280 276 270 265 262 262 262 261 258 258 258 257 256 255 255 253 250 246 243 245 248 249 249 248 245 244 246 247 246 244 240 238 239 240 241 241 240 236 234 234 236
300 300 299 297 293 290 288 286 284 283 282 281 279 276 272 268 266 265 262 257 255 255 255 254 254 254 254 254 251 246 243 245 247 248 251 249 245 245 246 246 245 242 238 238 239 240 241 241 239 236 233 234
302 302 301 299 296 293 291 288 286 284 282 280 279 278 277 275 273 271 267 261 257 255 254 252 252 252 251 252 252 250 246 243 244 245 246 249 249 247 246 245 245 244 241 238 237 237 240 241 240 238 233 232
302 302 302 301 298 295 293 290 288 286 283 281 278 277 277 276 275 272 267 263 258 256 254 251 249 248 248 249 249 251 249 245 243 242 241 243 248 250 248 246 244 244 243 242 238 234 235 238 239 239 236 233
303 303 303 301 298 296 293 290 286 283 279 277 276 274 272 272 271 269 264 259 256 253 252 250 247 245 245 245 246 248 249 247 244 242 239 238 241 245 247 247 247 247 246 244 241 234 232 234 237 239 239 237
305 303 302 299 297 294 291 288 284 280 276 273 273 271 270 269 270 269 263 254 250 248 247 245 243 241 241 241 242 244 246 248 246 243 240 237 237 238 242 245 246 247 246 244 243 239 235 234 236 239 241 241
304 301 300 299 297 292 288 284 282 280 277 275 273 272 272 272 272 271 267 255 246 243 242 241 239 237 237 236 237 239 241 244 245 245 242 239 236 235 237 239 240 241 242 241 241 242 239 236 236 238 240 243
303 301 300 299 296 291 285 281 280 278 276 274 274 273 274 274 274 273 271 264 251 244 241 240 238 236 234 233 233 234 235 238 241 243 243 241 238 234 233 235 235 236 238 238 238 240 241 239 237 236 238 242
303 302 301 299 295 290 287 283 278 276 273 270 269 270 271 273 275 274 273 271 263 254 247 242 239 237 235 233 231 231 231 232 234 237 240 241 240 237 233 233 234 233 234 237 239 239 239 240 239 238 238 240
301 301 301 300 296 291 289 288 282 276 273 270 267 267 267 269 273 273 273 274 271 263 255 248 243 240 237 236 233 231 230 229 230 232 234 236 237 238 236 235 236 235 232 234 240 242 240 239 240 242 240 239
298 299 299 298 296 291 288 290 287 279 273 272 270 268 268 268 270 271 273 275 273 268 261 253 247 243 241 239 237 235 232 230 229 229 230 231 233 235 236 236 237 238 235 233 236 241 242 239 239 241 240 239